DAL6441 PANC-PACV

Flight info

Callsign DAL6441
Flight time 0h 46m
Altitude 21000
Route NOEND4 NOEND JOH
Aircraft MD88/M-SDFGIRWY/C

Departure

Time 2026-04-26 14:43
Airport Ted Stevens Anchorage International Airport (PANC)

Arrival

Time 2026-04-26 15:29
Airport Merle K (Mudhole) Smith Airport (PACV)
Time Latitude Longitude Altitude Speed Heading
2026-04-26 13:57 61.17233 -149.98316 119 ft 0 kts 340°
2026-04-26 14:33 61.17228 -149.98312 119 ft 2 kts 339°
2026-04-26 14:33 61.17210 -149.98297 118 ft 3 kts 343°
2026-04-26 14:34 61.17190 -149.98287 115 ft 3 kts 347°
2026-04-26 14:34 61.17170 -149.98277 117 ft 3 kts 347°
2026-04-26 14:34 61.17151 -149.98268 116 ft 3 kts 347°
2026-04-26 14:34 61.17137 -149.98262 118 ft 3 kts 341°
2026-04-26 14:35 61.17123 -149.98246 118 ft 3 kts 309°
2026-04-26 14:35 61.17116 -149.98217 117 ft 3 kts 272°
2026-04-26 14:35 61.17118 -149.98176 116 ft 3 kts 263°
2026-04-26 14:35 61.17119 -149.98144 117 ft 1 kts 270°
2026-04-26 14:36 61.17119 -149.98135 116 ft 0 kts 270°
2026-04-26 14:38 61.17119 -149.98133 119 ft 0 kts 270°
2026-04-26 14:39 61.17119 -149.98267 116 ft 11 kts 270°
2026-04-26 14:39 61.17118 -149.98434 118 ft 11 kts 270°
2026-04-26 14:39 61.17118 -149.98571 121 ft 8 kts 270°
2026-04-26 14:39 61.17118 -149.98687 123 ft 8 kts 269°
2026-04-26 14:40 61.17118 -149.98815 123 ft 12 kts 271°
2026-04-26 14:40 61.17122 -149.98991 123 ft 11 kts 272°
2026-04-26 14:40 61.17124 -149.99159 127 ft 17 kts 270°
2026-04-26 14:40 61.17125 -149.99509 130 ft 25 kts 270°
2026-04-26 14:41 61.17129 -149.99776 130 ft 15 kts 272°
2026-04-26 14:41 61.17161 -149.99880 131 ft 9 kts 332°
2026-04-26 14:41 61.17261 -149.99943 136 ft 0 kts 345°
2026-04-26 14:42 61.17287 -149.99957 137 ft 26 kts 344°
2026-04-26 14:42 61.17727 -150.00207 138 ft 102 kts 345°
2026-04-26 14:43 61.18619 -150.00700 152 ft 160 kts 345°
2026-04-26 14:43 61.19778 -150.01357 591 ft 175 kts 344°
2026-04-26 14:43 61.20953 -150.02153 1403 ft 188 kts 334°
2026-04-26 14:43 61.22128 -150.03648 2066 ft 203 kts 325°
2026-04-26 14:44 61.23310 -150.05387 2848 ft 215 kts 324°
2026-04-26 14:44 61.24582 -150.07277 3518 ft 234 kts 324°
2026-04-26 14:44 61.25952 -150.09331 4204 ft 252 kts 326°
2026-04-26 14:44 61.27554 -150.10965 5104 ft 256 kts 345°
2026-04-26 14:45 61.29302 -150.11472 6162 ft 255 kts
2026-04-26 14:45 61.30469 -150.11195 6749 ft 256 kts 15°
2026-04-26 14:45 61.32643 -150.09247 7875 ft 256 kts 38°
2026-04-26 14:45 61.33947 -150.06735 8701 ft 255 kts 56°
2026-04-26 14:46 61.34837 -150.03554 9519 ft 255 kts 73°
2026-04-26 14:46 61.35230 -149.99983 10285 ft 254 kts 90°
2026-04-26 14:46 61.35092 -149.96320 10917 ft 258 kts 106°
2026-04-26 14:46 61.34415 -149.92749 11273 ft 274 kts 123°
2026-04-26 14:47 61.33127 -149.89668 11533 ft 293 kts 139°
2026-04-26 14:47 61.31547 -149.86784 11806 ft 312 kts 139°
2026-04-26 14:47 61.29890 -149.83680 12105 ft 330 kts 137°
2026-04-26 14:47 61.28187 -149.80352 12759 ft 337 kts 136°
2026-04-26 14:48 61.26634 -149.76649 13407 ft 345 kts 120°
2026-04-26 14:48 61.25742 -149.72002 14122 ft 351 kts 106°
2026-04-26 14:48 61.25117 -149.67027 14629 ft 360 kts 104°
2026-04-26 14:48 61.24517 -149.61920 15198 ft 368 kts 103°
2026-04-26 14:49 61.23990 -149.56671 15762 ft 375 kts 101°
2026-04-26 14:49 61.23512 -149.51269 16301 ft 383 kts 100°
2026-04-26 14:49 61.23035 -149.45778 16878 ft 390 kts 100°
2026-04-26 14:49 61.22531 -149.40190 17423 ft 398 kts 100°
2026-04-26 14:50 61.22016 -149.34502 17996 ft 405 kts 100°
2026-04-26 14:50 61.21480 -149.28710 18483 ft 411 kts 101°
2026-04-26 14:50 61.20920 -149.22951 19007 ft 415 kts 101°
2026-04-26 14:50 61.20330 -149.17038 19532 ft 420 kts 101°
2026-04-26 14:51 61.19731 -149.11062 20041 ft 425 kts 102°
2026-04-26 14:51 61.19129 -149.05037 20593 ft 429 kts 101°
2026-04-26 14:51 61.18519 -148.98937 20856 ft 438 kts 102°
2026-04-26 14:51 61.17894 -148.92676 20988 ft 449 kts 101°
2026-04-26 14:52 61.17263 -148.86309 21039 ft 452 kts 101°
2026-04-26 14:52 61.16636 -148.79948 21063 ft 451 kts 101°
2026-04-26 14:52 61.16010 -148.73574 21079 ft 451 kts 101°
2026-04-26 14:52 61.15387 -148.67230 21080 ft 450 kts 101°
2026-04-26 14:53 61.14762 -148.60870 21098 ft 451 kts 101°
2026-04-26 14:53 61.14136 -148.54511 21097 ft 450 kts 101°
2026-04-26 14:53 61.13446 -148.48208 21090 ft 450 kts 109°
2026-04-26 14:53 61.12111 -148.42380 21122 ft 448 kts 124°
2026-04-26 14:54 61.10348 -148.37082 21127 ft 448 kts 128°
2026-04-26 14:54 61.08501 -148.31904 21080 ft 446 kts 129°
2026-04-26 14:54 61.06661 -148.26762 21096 ft 447 kts 129°
2026-04-26 14:54 61.04821 -148.21575 21121 ft 448 kts 128°
2026-04-26 14:55 61.02997 -148.16364 21116 ft 448 kts 128°
2026-04-26 14:55 61.01215 -148.11202 21120 ft 449 kts 127°
2026-04-26 14:55 60.99419 -148.05932 21122 ft 449 kts 127°
2026-04-26 14:55 60.97633 -148.00657 21124 ft 449 kts 127°
2026-04-26 14:56 60.95849 -147.95381 21130 ft 449 kts 127°
2026-04-26 14:56 60.94062 -147.90106 21142 ft 450 kts 127°
2026-04-26 14:56 60.92272 -147.84832 21145 ft 451 kts 127°
2026-04-26 14:56 60.90470 -147.79564 21128 ft 451 kts 127°
2026-04-26 14:57 60.88663 -147.74297 21121 ft 451 kts 127°
2026-04-26 14:57 60.86843 -147.69056 21127 ft 450 kts 128°
2026-04-26 14:57 60.85016 -147.63847 21131 ft 450 kts 128°
2026-04-26 14:57 60.83180 -147.58633 21130 ft 450 kts 128°
2026-04-26 14:58 60.81350 -147.53430 21134 ft 451 kts 128°
2026-04-26 14:58 60.79522 -147.48221 21136 ft 451 kts 128°
2026-04-26 14:58 60.77692 -147.42995 21140 ft 451 kts 128°
2026-04-26 14:58 60.75865 -147.37781 21139 ft 451 kts 128°
2026-04-26 14:59 60.74038 -147.32567 21137 ft 452 kts 128°
2026-04-26 14:59 60.72206 -147.27345 21139 ft 452 kts 128°
2026-04-26 14:59 60.70372 -147.22126 21140 ft 452 kts 128°
2026-04-26 14:59 60.69156 -147.18672 21142 ft 452 kts 128°
2026-04-26 15:00 60.66700 -147.11702 21141 ft 452 kts 128°
2026-04-26 15:00 60.64890 -147.06575 21142 ft 452 kts 128°
2026-04-26 15:00 60.63023 -147.01401 21143 ft 452 kts 129°
2026-04-26 15:00 60.61135 -146.96274 21148 ft 453 kts 129°
2026-04-26 15:01 60.59251 -146.91145 21147 ft 453 kts 129°
2026-04-26 15:01 60.57381 -146.85986 21146 ft 453 kts 129°
2026-04-26 15:01 60.55527 -146.80810 21148 ft 454 kts 128°
2026-04-26 15:01 60.53681 -146.75612 21151 ft 454 kts 128°
2026-04-26 15:02 60.51839 -146.70412 21154 ft 454 kts 128°
2026-04-26 15:02 60.49990 -146.65191 21155 ft 456 kts 128°
2026-04-26 15:02 60.48257 -146.59788 21152 ft 458 kts 116°
2026-04-26 15:02 60.47175 -146.53726 21169 ft 459 kts 104°
2026-04-26 15:03 60.46441 -146.47432 21171 ft 459 kts 102°
2026-04-26 15:03 60.45789 -146.41111 21165 ft 459 kts 101°
2026-04-26 15:03 60.45151 -146.34781 21150 ft 459 kts 101°
2026-04-26 15:03 60.44505 -146.28442 21152 ft 459 kts 101°
2026-04-26 15:04 60.43838 -146.22124 21149 ft 459 kts 102°
2026-04-26 15:04 60.43148 -146.15824 21152 ft 459 kts 102°
2026-04-26 15:04 60.42437 -146.09521 21149 ft 459 kts 102°
2026-04-26 15:04 60.41718 -146.03244 21151 ft 459 kts 103°
2026-04-26 15:05 60.40994 -145.96942 21150 ft 459 kts 103°
2026-04-26 15:05 60.40516 -145.92776 21153 ft 459 kts 102°
2026-04-26 15:05 60.39553 -145.84351 21150 ft 460 kts 102°
2026-04-26 15:05 60.38835 -145.78045 21148 ft 460 kts 102°
2026-04-26 15:06 60.38109 -145.71742 21147 ft 460 kts 103°
2026-04-26 15:06 60.37360 -145.65469 21121 ft 461 kts 103°
2026-04-26 15:06 60.36592 -145.59140 20705 ft 462 kts 104°
2026-04-26 15:06 60.35830 -145.52876 20244 ft 455 kts 104°
2026-04-26 15:07 60.34355 -145.40673 19360 ft 441 kts 104°
2026-04-26 15:07 60.33638 -145.34700 18907 ft 435 kts 104°
2026-04-26 15:07 60.32935 -145.28828 18500 ft 429 kts 104°
2026-04-26 15:08 60.32249 -145.23089 18009 ft 423 kts 104°
2026-04-26 15:08 60.31562 -145.17362 17518 ft 417 kts 104°
2026-04-26 15:08 60.30871 -145.11705 17019 ft 412 kts 105°
2026-04-26 15:08 60.30197 -145.06147 16544 ft 406 kts 105°
2026-04-26 15:09 60.29537 -145.00628 16068 ft 401 kts 105°
2026-04-26 15:09 60.28896 -144.95246 15571 ft 386 kts 105°
2026-04-26 15:09 60.28270 -144.90106 15102 ft 371 kts 105°
2026-04-26 15:09 60.27637 -144.85099 14659 ft 367 kts 106°
2026-04-26 15:10 60.26997 -144.80144 14219 ft 363 kts 106°
2026-04-26 15:10 60.26575 -144.76892 13932 ft 361 kts 107°
2026-04-26 15:10 60.25740 -144.70390 13260 ft 356 kts 106°
2026-04-26 15:10 60.25136 -144.65585 12778 ft 353 kts 106°
2026-04-26 15:11 60.24433 -144.60900 12277 ft 348 kts 112°
2026-04-26 15:11 60.23579 -144.56460 11805 ft 336 kts 114°
2026-04-26 15:11 60.22717 -144.52211 11316 ft 321 kts 115°
2026-04-26 15:11 60.21888 -144.48143 10818 ft 307 kts 115°
2026-04-26 15:12 60.21094 -144.44283 10378 ft 291 kts 115°
2026-04-26 15:12 60.20333 -144.40589 9938 ft 283 kts 115°
2026-04-26 15:12 60.19583 -144.36951 9458 ft 280 kts 115°
2026-04-26 15:12 60.18835 -144.33362 8974 ft 276 kts 115°
2026-04-26 15:13 60.18092 -144.29840 8489 ft 272 kts 115°
2026-04-26 15:13 60.17351 -144.26368 8014 ft 269 kts 115°
2026-04-26 15:13 60.16461 -144.23125 7546 ft 263 kts 132°
2026-04-26 15:13 60.15206 -144.20498 7099 ft 259 kts 137°
2026-04-26 15:14 60.14177 -144.17585 6634 ft 258 kts 107°
2026-04-26 15:14 60.14216 -144.14070 6284 ft 253 kts 69°
2026-04-26 15:14 60.15202 -144.11228 6139 ft 250 kts 37°
2026-04-26 15:14 60.16754 -144.09810 6079 ft 247 kts
2026-04-26 15:15 60.18439 -144.10186 6049 ft 246 kts 335°
2026-04-26 15:15 60.19770 -144.12249 6091 ft 240 kts 304°
2026-04-26 15:15 60.20430 -144.15248 6107 ft 243 kts 278°
2026-04-26 15:15 60.20632 -144.18672 6068 ft 243 kts 276°
2026-04-26 15:16 60.20926 -144.22002 6027 ft 251 kts 282°
2026-04-26 15:16 60.21414 -144.25399 6015 ft 251 kts 288°
2026-04-26 15:16 60.22017 -144.28655 5993 ft 248 kts 291°
2026-04-26 15:16 60.22689 -144.31840 5987 ft 246 kts 293°
2026-04-26 15:17 60.23399 -144.34971 5982 ft 246 kts 294°
2026-04-26 15:17 60.23894 -144.37068 5988 ft 246 kts 295°
2026-04-26 15:17 60.24875 -144.41174 5984 ft 245 kts 295°
2026-04-26 15:17 60.25617 -144.44279 5990 ft 246 kts 295°
2026-04-26 15:18 60.26355 -144.47382 5990 ft 246 kts 295°
2026-04-26 15:18 60.27089 -144.50494 5993 ft 246 kts 295°
2026-04-26 15:18 60.27821 -144.53616 5998 ft 246 kts 294°
2026-04-26 15:18 60.28549 -144.56731 5997 ft 246 kts 294°
2026-04-26 15:19 60.29275 -144.59852 5996 ft 242 kts 294°
2026-04-26 15:19 60.29950 -144.62759 5971 ft 216 kts 294°
2026-04-26 15:19 60.30557 -144.65378 5948 ft 201 kts 294°
2026-04-26 15:19 60.31145 -144.67917 5958 ft 199 kts 294°
2026-04-26 15:20 60.31731 -144.70447 5975 ft 199 kts 294°
2026-04-26 15:20 60.32317 -144.72978 5975 ft 199 kts 294°
2026-04-26 15:20 60.32905 -144.75521 5992 ft 200 kts 294°
2026-04-26 15:20 60.33494 -144.78063 5991 ft 200 kts 294°
2026-04-26 15:21 60.34084 -144.80609 5998 ft 200 kts 294°
2026-04-26 15:21 60.34670 -144.83138 5990 ft 198 kts 294°
2026-04-26 15:21 60.35252 -144.85652 5980 ft 195 kts 294°
2026-04-26 15:21 60.35794 -144.87981 5998 ft 176 kts 294°
2026-04-26 15:22 60.36307 -144.90255 5997 ft 179 kts 294°
2026-04-26 15:22 60.36826 -144.92574 5760 ft 184 kts 294°
2026-04-26 15:22 60.37344 -144.94882 5380 ft 180 kts 294°
2026-04-26 15:22 60.37858 -144.97163 5008 ft 177 kts 294°
2026-04-26 15:23 60.38368 -144.99411 4629 ft 175 kts 294°
2026-04-26 15:23 60.38875 -145.01641 4250 ft 173 kts 294°
2026-04-26 15:23 60.39377 -145.03840 3878 ft 171 kts 294°
2026-04-26 15:23 60.39871 -145.06010 3514 ft 170 kts 294°
2026-04-26 15:24 60.40362 -145.08167 3148 ft 168 kts 293°
2026-04-26 15:24 60.40842 -145.10283 2937 ft 163 kts 293°
2026-04-26 15:24 60.41317 -145.12375 2854 ft 164 kts 293°
2026-04-26 15:24 60.41795 -145.14492 2832 ft 166 kts 293°
2026-04-26 15:25 60.42272 -145.16635 2811 ft 168 kts 293°
2026-04-26 15:25 60.42593 -145.18091 2808 ft 167 kts 293°
2026-04-26 15:25 60.43180 -145.20693 2771 ft 138 kts 293°
2026-04-26 15:25 60.43581 -145.22455 2745 ft 141 kts 293°
2026-04-26 15:26 60.44005 -145.24298 2505 ft 144 kts 294°
2026-04-26 15:26 60.44417 -145.26116 2254 ft 140 kts 293°
2026-04-26 15:26 60.44816 -145.27890 2049 ft 138 kts 293°
2026-04-26 15:26 60.45208 -145.29647 1886 ft 137 kts 293°
2026-04-26 15:27 60.45602 -145.31410 1727 ft 138 kts 293°
2026-04-26 15:27 60.45997 -145.33184 1536 ft 139 kts 293°
2026-04-26 15:27 60.46259 -145.34364 1385 ft 139 kts 294°
2026-04-26 15:27 60.46790 -145.36740 1069 ft 138 kts 294°
2026-04-26 15:28 60.47050 -145.37907 932 ft 137 kts 294°
2026-04-26 15:28 60.47439 -145.39656 739 ft 136 kts 294°
2026-04-26 15:28 60.47829 -145.41401 568 ft 136 kts 294°
2026-04-26 15:28 60.48344 -145.43710 332 ft 136 kts 294°
2026-04-26 15:29 60.48604 -145.44881 209 ft 135 kts 294°
2026-04-26 15:29 60.48987 -145.46613 63 ft 129 kts 294°
2026-04-26 15:29 60.49350 -145.48225 51 ft 20 kts 295°
2026-04-26 15:30 60.49502 -145.48906 51 ft 29 kts 295°
2026-04-26 15:30 60.49583 -145.49265 53 ft 27 kts 294°
2026-04-26 15:30 60.49624 -145.49515 53 ft 5 kts 252°
2026-04-26 15:31 60.49616 -145.49574 53 ft 9 kts 269°
2026-04-26 15:31 60.49615 -145.49414 54 ft 19 kts 115°
2026-04-26 15:31 60.49559 -145.49166 53 ft 19 kts 115°
2026-04-26 15:32 60.49464 -145.48743 51 ft 20 kts 114°
2026-04-26 15:32 60.49390 -145.48398 51 ft 20 kts 115°
2026-04-26 15:32 60.49331 -145.48145 51 ft 19 kts 115°
2026-04-26 15:33 60.49278 -145.47902 52 ft 19 kts 114°
2026-04-26 15:33 60.49229 -145.47678 52 ft 12 kts 110°
2026-04-26 15:33 60.49255 -145.47540 50 ft 11 kts 28°
2026-04-26 15:33 60.49318 -145.47480 54 ft 10 kts 25°
2026-04-26 15:34 60.49379 -145.47424 55 ft 10 kts 24°
2026-04-26 15:34 60.49428 -145.47378 52 ft 0 kts 24°